TimeCST,TemperatureF,Dew PointF,Humidity,Sea Level PressureIn,VisibilityMPH,Wind Direction,Wind SpeedMPH,Gust SpeedMPH,PrecipitationIn,Events,Conditions,WindDirDegrees,DateUTC
12:53 AM,46.9,45.0,93,30.25,10.0,Calm,Calm,-,N/A,,Clear,0,2013-11-11 06:53:00
1:53 AM,46.0,44.1,93,30.24,9.0,Calm,Calm,-,N/A,,Clear,0,2013-11-11 07:53:00
2:53 AM,45.0,44.1,97,30.23,10.0,Calm,Calm,-,N/A,,Clear,0,2013-11-11 08:53:00
3:53 AM,44.1,42.1,93,30.23,10.0,Calm,Calm,-,N/A,,Clear,0,2013-11-11 09:53:00
4:53 AM,44.1,42.1,93,30.23,10.0,Calm,Calm,-,N/A,,Clear,0,2013-11-11 10:53:00
5:53 AM,43.0,41.0,93,30.24,10.0,Calm,Calm,-,N/A,,Clear,0,2013-11-11 11:53:00
6:53 AM,44.1,42.1,93,30.25,10.0,Calm,Calm,-,N/A,,Clear,0,2013-11-11 12:53:00
7:53 AM,51.1,46.9,86,30.27,6.0,Calm,Calm,-,N/A,,Clear,0,2013-11-11 13:53:00
8:53 AM,59.0,48.9,69,30.27,10.0,Calm,Calm,-,N/A,,Clear,0,2013-11-11 14:53:00
9:53 AM,64.0,50.0,60,30.27,10.0,Calm,Calm,-,N/A,,Clear,0,2013-11-11 15:53:00
10:53 AM,70.0,48.0,46,30.25,10.0,Calm,Calm,-,N/A,,Clear,0,2013-11-11 16:53:00
11:53 AM,73.0,46.9,39,30.22,10.0,Calm,Calm,-,N/A,,Clear,0,2013-11-11 17:53:00
12:53 PM,73.9,46.9,38,30.19,10.0,Calm,Calm,-,N/A,,Clear,0,2013-11-11 18:53:00
1:53 PM,75.0,46.9,37,30.17,10.0,North,5.8,-,N/A,,Clear,360,2013-11-11 19:53:00
2:53 PM,75.0,46.9,37,30.16,10.0,Calm,Calm,-,N/A,,Clear,0,2013-11-11 20:53:00
3:53 PM,75.0,46.9,37,30.16,10.0,North,3.5,-,N/A,,Clear,360,2013-11-11 21:53:00
4:53 PM,66.0,52.0,60,30.16,10.0,Calm,Calm,-,N/A,,Clear,0,2013-11-11 22:53:00
5:53 PM,60.1,53.1,78,30.17,10.0,Calm,Calm,-,N/A,,Clear,0,2013-11-11 23:53:00
6:53 PM,57.0,52.0,83,30.19,10.0,Calm,Calm,-,N/A,,Clear,0,2013-11-12 00:53:00
7:53 PM,55.0,52.0,89,30.19,10.0,Calm,Calm,-,N/A,,Clear,0,2013-11-12 01:53:00
8:53 PM,52.0,50.0,93,30.21,10.0,Calm,Calm,-,N/A,,Clear,0,2013-11-12 02:53:00
9:53 PM,52.0,48.9,89,30.22,10.0,Calm,Calm,-,N/A,,Clear,0,2013-11-12 03:53:00
10:53 PM,50.0,48.0,93,30.22,10.0,Calm,Calm,-,N/A,,Clear,0,2013-11-12 04:53:00
11:53 PM,48.9,46.0,90,30.20,8.0,Calm,Calm,-,N/A,,Clear,0,2013-11-12 05:53:00